Location: Veytaux
(46.4185°N, 6.9320°E)
Time: 08:19:03
(UTC+00:00)

CZ-4 R/B - Pass Details

Date: 27 May 2022
Orbit: 680 x 752 km, 98.5° (Epoch: 02 July)

Event Time Altitude Azimuth Distance (km) Brightness Sun altitude
Rises 01:04:23 0° 16° (NNE) 3,061 8.7 -19.0°
Reaches altitude 10° 01:06:40 10° 19° (NNE) 2,136 7.6 -18.8°
Maximum altitude 01:11:18 69° 103° (ESE) 733 3.9 -18.5°
Enters shadow 01:13:20 33° 177° (S) 1,142 4.4 -18.3°
